Terug naar catalogus

STARLINK-3748

ActiefCommunicatieVLEO
NORAD 52267·PAYLOAD·🇺🇸 United States

Gelanceerd Apr 21, 2022 vanaf Cape Canaveral Space Force Station

Loading…

Volgende Passages (komende 24 uur)

TLE

VersSource: CelesTrak SupGP

Epoch: Sep 15, 2026, 02:46 UTC

1 52267C 22041G   26258.11576389  .00046713  00000+0  13365-2 0  2582
2 52267  53.1593 325.2132 0001260  88.0390 269.3975 15.35375769    18

Volg STARLINK-3748 in realtime met AllMySat

Download on the App Store